Home   Weather   Geldern   Past weeks

Flag for Germany Past Weather in Geldern, North Rhine-Westphalia, Germany — Yesterday and Last 2 Weeks

Now
23 °F

Ice fog.


Feels Like: 23 °F
Forecast: 24 / 36 °F
Wind: No wind

Location: Niederrhein

Current Time: Jan 19, 2017 at 5:43:52 am

Latest Report: Jan 19, 2017 at 5:20 am


Visibility: 3 mi

Pressure: 30.66 "Hg

Humidity: 100%

Dew Point: 23 °F

Location of GeldernLocation

Past Weather in Geldern — Graph

°F

Geldern Temperature Yesterday

Maximum temperature yesterday: 30 °F (at 1:50 pm)
Minimum temperature yesterday: 25 °F (at 4:50 am)
Average temperature yesterday: 28 °F

High & Low Weather Summary for the Past Weeks

 TemperatureHumidityPressure
High50 °F (Jan 11, 3:20 pm)100% (Jan 3, 11:20 pm)30.74 "Hg (Jan 3, 11:20 pm)
Low18 °F (Jan 6, 6:20 am)65% (Jan 5, 2:20 pm)29.00 "Hg (Jan 12, 11:50 pm)
Average35 °F96%30.17 "Hg
* Reported Jan 3 11:20 pm — Jan 18 11:50 pm, Geldern, Weather by CustomWeather, © 2017

Note: Actual official high and low records may vary slightly from our data, if they occured in-between our weather recording intervals... More about our weather records

Advertising

Geldern Weather History for the Previous 24 Hours

Scroll right to see more
 ConditionsComfort  
Time TempWeatherWind HumidityBarometerVisibility
11:50 pm
Wed, Jan 18
27 °FClear.No wind100%30.66 "Hg4 mi
11:20 pm27 °FClear.3 mph100%30.66 "Hg4 mi
10:50 pm27 °FClear.No wind100%30.66 "Hg6 mi
10:20 pm27 °FClear.No wind100%30.66 "Hg6 mi
9:50 pm27 °FClear.No wind100%30.66 "Hg5 mi
9:20 pm28 °FClear.1 mph100%30.66 "Hg5 mi
8:20 pm28 °FClear.2 mph100%30.66 "Hg5 mi
7:50 pm30 °FClear.2 mph100%30.66 "Hg6 mi
7:20 pm30 °FClear.2 mph100%30.66 "Hg5 mi
6:50 pm30 °FClear.3 mph100%30.69 "Hg4 mi
6:20 pm30 °FClear.No wind100%30.69 "Hg4 mi
5:50 pm30 °FClear.No wind100%30.69 "Hg4 mi
5:20 pm30 °FClear.No wind100%30.69 "Hg4 mi
4:50 pm30 °FClear.2 mph100%30.69 "Hg4 mi
4:20 pm30 °FIce fog.2 mph100%30.69 "Hg3 mi
3:50 pm30 °FIce fog.3 mph100%30.69 "Hg3 mi
3:20 pm30 °FIce fog.5 mph100%30.69 "Hg3 mi
2:50 pm30 °FIce fog.3 mph100%30.69 "Hg3 mi
2:20 pm30 °FIce fog.3 mph100%30.69 "Hg2 mi
1:50 pm30 °FIce fog.3 mph100%30.69 "Hg2 mi
1:20 pm28 °FIce fog.5 mph100%30.69 "Hg2 mi
12:50 pm28 °FIce fog.3 mph100%30.72 "Hg2 mi
12:20 pm28 °FIce fog.3 mph100%30.72 "Hg2 mi
11:50 am28 °FIce fog.3 mph100%30.72 "Hg2 mi
11:20 am28 °FIce fog.5 mph100%30.72 "Hg2 mi
10:50 am27 °FIce fog.2 mph100%30.72 "Hg2 mi
10:20 am27 °FIce fog.3 mph100%30.72 "Hg2 mi
9:50 am27 °FIce fog.5 mph100%30.72 "Hg1 mi
9:20 am25 °FIce fog.3 mph100%30.72 "Hg2 mi
8:50 am25 °FIce fog.3 mph100%30.72 "Hg2 mi
8:20 am25 °FIce fog.3 mph100%30.72 "Hg2 mi
7:20 am25 °FIce fog.2 mph100%30.69 "Hg2 mi
6:20 am25 °FIce fog.3 mph100%30.69 "Hg2 mi
5:50 am25 °FIce fog.3 mph100%30.69 "Hg2 mi
5:20 am25 °FIce fog.3 mph100%30.69 "Hg2 mi
Weather by CustomWeather, © 2017

See weather overviewHow to use our weather pages